Location: Unspecified
(52.4292°N, 19.3359°E)
Time: 05:40:21
(UTC+02:00)

Vanguard 1 Rocket - Pass Details

Date: 19 May 2024
Orbit: 651 x 4215 km, 34.3° (Epoch: 17 April)

Event Time Altitude Azimuth Distance (km) Brightness Sun altitude
Rises 15:22:12 0° 260° (W) 5,210 12.0 44.8°
Reaches altitude 10° 15:28:34 10° 235° (SW) 3,393 11.4 44.0°
Maximum altitude 15:31:34 12° 213° (SSW) 2,841 10.8 43.6°
Drops below altitude 10° 15:34:05 10° 189° (S) 2,729 10.4 43.2°
Sets 15:37:56 0° 158° (SSE) 3,284 10.3 42.7°
